Location: Crescent
(42.8242°N, 73.7329°W)
Time: 17:06:26
(UTC+00:00)

Vanguard 1 Rocket - Pass Details

Date: 27 February 2026
Orbit: 653 x 4214 km, 34.3° (Epoch: 8 March)

Event Time Altitude Azimuth Distance (km) Brightness Sun altitude
Rises 20:03:16 0° 270° (W) 4,400 11.6 25.3°
Reaches altitude 10° 20:05:46 10° 264° (W) 3,746 11.6 24.9°
Maximum altitude 20:15:28 47° 194° (SSW) 2,920 11.0 23.6°
Drops below altitude 10° 20:33:24 10° 130° (SE) 6,660 11.7 20.9°
Sets 20:39:48 0° 125° (SE) 8,073 12.0 19.9°
